Flag for Russia Weather past 2 weeks in Kazan, Russia

Now
23 °F

Light snow. Ice fog.


Feels Like: 11 °F
Forecast: 12 / 27 °F
Wind: 13 mph from Southeast

Location: Kazan'

Current Time: Feb 27, 2015 at 6:38:44 PM

Latest Report: Feb 27, 2015 at 6:00 PM


Visibility: 3 mi

Pressure: 30.48 "Hg

Humidity: 93%

Dew point: 21 °F

Location of KazanLocation

Historic Weather in Kazan — Graph

°F

Kazan temperature yesterday

Maximum temperature yesterday: 28 °F (at 1:30 PM)
Minimum temperature yesterday: 16 °F (at 11:30 PM)
Average temperature yesterday: 22 °F

Past Weeks' High & Low Weather Summary

 TemperatureHumidityPressure
High37 °F (Feb 22, 8:30 PM)100% (Feb 12, 7:00 PM)30.66 "Hg (Feb 12, 7:00 PM)
Low-11 °F (Feb 20, 2:30 AM)48% (Feb 16, 3:30 PM)29.77 "Hg (Feb 20, 9:00 PM)
Average19 °F86%30.21 "Hg
* Reported Feb 12 5:00 PM — Feb 27 5:30 PM, Kazan, Weather by CustomWeather, © 2015

Note: Actual official high and low records may vary slightly from our data, if they occured in-between our weather recording intervals... More about our weather records

Advertising

Kazan weather history for previous 24 hours

 ConditionsComfort  
Time TempWeatherWind HumidityBarometerVisibility
5:30 PM
Fri, Feb 27
23 °FIce fog.13 mph93%30.48 "Hg3 mi
5:00 PM23 °FIce fog.13 mph93%30.48 "Hg3 mi
4:30 PM23 °FOvercast.15 mph93%30.48 "HgN/A
4:00 PM23 °FOvercast.13 mph93%30.51 "HgN/A
3:00 PM23 °FOvercast.15 mph93%30.51 "HgN/A
2:30 PM23 °FOvercast.13 mph93%30.51 "HgN/A
2:00 PM23 °FOvercast.15 mph93%30.51 "HgN/A
1:30 PM23 °FOvercast.10 mph86%30.51 "HgN/A
1:00 PM21 °FOvercast.10 mph93%30.51 "HgN/A
12:30 PM21 °FOvercast.13 mph93%30.51 "HgN/A
12:00 PM19 °FOvercast.13 mph93%30.51 "HgN/A
11:30 AM19 °FOvercast.13 mph93%30.51 "HgN/A
11:00 AM18 °FLow clouds.15 mph100%30.51 "HgN/A
10:30 AM18 °FLight snow. Low clouds.13 mph93%30.51 "HgN/A
10:00 AM18 °FLight snow. Overcast.13 mph93%30.51 "HgN/A
9:30 AM18 °FLight snow. Ice fog.13 mph93%30.51 "Hg3 mi
9:00 AM18 °FLight snow. Ice fog.10 mph93%30.51 "Hg3 mi
8:30 AM16 °FLight snow. Ice fog.8 mph100%30.54 "Hg3 mi
8:00 AM16 °FLight snow. Ice fog.8 mph93%30.54 "Hg3 mi
7:30 AM14 °FIce fog.10 mph92%30.51 "Hg3 mi
6:30 AM12 °FIce fog.13 mph92%30.51 "Hg3 mi
6:00 AM12 °FIce fog.8 mph92%30.51 "Hg3 mi
5:30 AM12 °FIce fog.10 mph100%30.51 "Hg3 mi
5:00 AM14 °FIce fog.10 mph92%30.51 "Hg3 mi
4:30 AM14 °FIce fog.10 mph92%30.51 "Hg3 mi
4:00 AM16 °FClear.13 mph93%30.51 "Hg10 mi
3:30 AM12 °FClear.3 mph100%30.54 "Hg10 mi
3:00 AM14 °FClear.8 mph100%30.54 "Hg10 mi
2:30 AM16 °FClear.10 mph93%30.54 "Hg10 mi
2:00 AM16 °FClear.8 mph93%30.54 "Hg10 mi
1:30 AM16 °FClear.8 mph93%30.54 "Hg10 mi
1:00 AM18 °FClear.15 mph93%30.54 "Hg10 mi
12:30 AM16 °FClear.13 mph93%30.54 "Hg10 mi
12:00 AM16 °FClear.10 mph93%30.57 "Hg10 mi
11:30 PM
Thu, Feb 26
16 °FClear.8 mph93%30.57 "Hg10 mi
11:00 PM19 °FClear.15 mph93%30.54 "Hg10 mi
10:30 PM19 °FClear.13 mph93%30.57 "Hg10 mi
10:00 PM21 °FClear.15 mph86%30.57 "Hg10 mi
9:30 PM21 °FClear.13 mph93%30.57 "Hg10 mi
9:00 PM23 °FClear.10 mph86%30.57 "Hg10 mi
8:30 PM21 °FClear.10 mph93%30.57 "Hg10 mi
8:00 PM21 °FClear.8 mph86%30.60 "Hg10 mi
7:30 PM21 °FClear.13 mph86%30.60 "Hg10 mi
7:00 PM23 °FClear.15 mph86%30.60 "Hg10 mi
6:30 PM21 °FClear.13 mph93%30.60 "Hg10 mi
6:00 PM23 °FSunny.13 mph86%30.60 "Hg10 mi
Weather by CustomWeather, © 2015

See weather overviewHow to use our weather pages